Location: DARK SKY Beskydy - Park tmavé oblohy, www.darkskybeskydy.cz
(49.4926°N, 18.5016°E)
Time: 11:12:39
(UTC+01:00)

SR - All Passes

Search period start: 22 February 2024 00:00
Search period end: 03 March 2024 00:00
Orbit: 573 x 868 km, 66.7° (Epoch: 21 February)

Date Brightness Start Highest point End Pass type
(mag) Time Alt. Az. Time Alt. Az. Time Alt. Az.
22 Feb - 00:50:22 10° NW 00:55:20 49° WSW 00:59:52 10° SSE night (unlit)
22 Feb - 15:21:39 10° S 15:27:13 47° ESE 15:32:38 10° NE daylight
22 Feb - 17:03:45 10° WSW 17:09:17 43° NW 17:14:37 10° NNE daylight
22 Feb - 18:49:04 10° WNW 18:52:40 17° NNW 18:56:09 10° NNE visible
22 Feb - 20:34:29 10° NNW 20:36:54 13° N 20:39:14 10° NNE visible
22 Feb - 22:16:38 10° NNW 22:20:51 23° NNE 22:24:48 10° E visible
22 Feb - 23:58:22 10° NW 00:03:35 87° NE 00:08:20 10° SE night (unlit)
23 Feb - 01:41:50 10° WNW 01:44:40 15° WSW 01:47:22 10° SW night (unlit)
23 Feb - 14:30:54 10° SSE 14:35:39 26° ESE 14:40:17 10° NE daylight
23 Feb - 16:11:23 10° SW 16:17:13 69° NW 16:22:51 10° NNE daylight
23 Feb - 17:55:43 10° W 18:00:08 22° NNW 18:04:24 10° NNE visible
23 Feb - 19:41:45 10° NNW 19:44:10 13° N 19:46:29 10° NNE visible
23 Feb - 21:24:54 10° NNW 21:28:21 17° NNE 21:31:40 10° ENE visible
23 Feb - 23:06:31 10° NNW 23:11:37 49° NE 23:16:15 10° ESE visible
24 Feb - 00:48:55 10° NW 00:53:17 30° WSW 00:57:22 10° S night (unlit)
24 Feb - 13:41:24 10° SE 13:44:15 14° ESE 13:47:05 10° ENE daylight
24 Feb - 15:19:31 10° SSW 15:25:20 71° ESE 15:30:58 10° NE daylight
24 Feb - 17:02:38 10° W 17:07:46 31° NW 17:12:41 10° NNE daylight
24 Feb - 18:48:29 10° NW 18:51:26 14° NNW 18:54:19 10° NNE visible
24 Feb - 20:33:00 10° NNW 20:35:43 14° NNE 20:38:21 10° NE visible
24 Feb - 22:14:46 10° NNW 22:19:25 30° NE 22:23:44 10° E visible
24 Feb - 23:56:40 10° NW 00:01:44 59° WSW 00:06:19 10° SSE night (unlit)
25 Feb - 14:28:13 10° S 14:33:37 40° ESE 14:38:53 10° NE daylight
25 Feb - 16:09:57 10° WSW 16:15:34 48° NW 16:20:59 10° NNE daylight
25 Feb - 17:55:02 10° WNW 17:58:49 18° NNW 18:02:28 10° NNE visible
25 Feb - 19:40:44 10° NNW 19:43:00 12° N 19:45:13 10° NNE visible
25 Feb - 21:23:03 10° NNW 21:27:02 21° NNE 21:30:47 10° ENE visible
25 Feb - 23:04:43 10° NW 23:09:55 75° NE 23:14:37 10° SE visible
26 Feb - 00:47:48 10° WNW 00:51:08 18° WSW 00:54:18 10° SSW night (unlit)
26 Feb - 13:37:43 10° SSE 13:42:05 22° ESE 13:46:23 10° ENE daylight
26 Feb - 15:17:41 10° SW 15:23:33 79° NW 15:29:11 10° NE daylight
26 Feb - 17:01:43 10° W 17:06:19 24° NNW 17:10:45 10° NNE daylight
26 Feb - 18:47:49 10° NNW 18:50:16 13° N 18:52:39 10° NNE visible
26 Feb - 20:31:17 10° NNW 20:34:30 16° NNE 20:37:34 10° ENE visible
26 Feb - 22:12:54 10° NNW 22:17:53 42° NE 22:22:25 10° ESE visible
26 Feb - 23:55:07 10° NW 23:59:43 35° WSW 00:03:57 10° S night (unlit)
27 Feb - 12:48:55 10° ESE 12:50:45 11° ESE 12:52:34 10° E daylight
27 Feb - 14:25:57 10° SSW 14:31:43 61° ESE 14:37:15 10° NE daylight
27 Feb - 16:08:44 10° WSW 16:14:00 35° NW 16:19:02 10° NNE daylight
27 Feb - 17:54:26 10° NW 17:57:34 15° NNW 18:00:36 10° NNE visible
27 Feb - 19:39:20 10° NNW 19:41:50 13° N 19:44:16 10° NE visible
27 Feb - 21:21:10 10° NNW 21:25:38 27° NE 21:29:46 10° E visible
27 Feb - 23:02:58 10° NW 23:08:04 70° WSW 23:12:42 10° SSE visible
28 Feb - 00:48:10 10° W 00:48:52 10° W 00:49:32 10° WSW night (unlit)
28 Feb - 13:34:50 10° S 13:40:02 34° ESE 13:45:05 10° NE daylight
28 Feb - 15:16:08 10° SW 15:21:50 54° NW 15:27:19 10° NNE daylight
28 Feb - 17:00:59 10° WNW 17:04:58 19° NNW 17:08:48 10° NNE daylight
28 Feb - 18:46:53 10° NNW 18:49:06 12° N 18:51:14 10° NNE visible
28 Feb - 20:29:26 10° NNW 20:33:11 19° NNE 20:36:44 10° ENE visible
28 Feb - 22:11:04 10° NNW 22:16:12 64° NE 22:20:52 10° SE visible
28 Feb - 23:53:50 10° WNW 23:57:35 22° WSW 00:01:06 10° SSW night (unlit)
29 Feb - 12:44:36 10° SSE 12:48:32 19° ESE 12:52:25 10° ENE daylight
29 Feb - 14:24:01 10° SW 14:29:52 89° WNW 14:35:30 10° NE daylight
29 Feb - 16:07:45 10° W 16:12:31 26° NW 16:17:06 10° NNE daylight
29 Feb - 17:53:49 10° NW 17:56:21 13° N 17:58:49 10° NNE visible
29 Feb - 19:37:38 10° NNW 19:40:36 15° NNE 19:43:27 10° NE visible
29 Feb - 21:19:16 10° NNW 21:24:06 37° NE 21:28:32 10° ESE visible
29 Feb - 23:01:21 10° NW 23:06:06 42° WSW 23:10:27 10° S visible
01 Mar - 13:32:25 10° SSW 13:38:03 53° ESE 13:43:31 10° NE daylight
01 Mar - 15:14:50 10° WSW 15:20:14 38° NW 15:25:23 10° NNE daylight
01 Mar - 17:00:22 10° NW 17:03:40 16° NNW 17:06:53 10° NNE daylight
01 Mar - 18:45:36 10° NNW 18:47:55 13° N 18:50:09 10° NNE visible
01 Mar - 20:27:32 10° NNW 20:31:48 24° NNE 20:35:46 10° E visible
01 Mar - 22:09:17 10° NW 22:14:24 83° SW 22:19:02 10° SSE visible
01 Mar - 23:53:16 10° WNW 23:55:20 13° WSW 23:57:20 10° SW night (unlit)
02 Mar - 12:41:29 10° S 12:46:25 29° ESE 12:51:15 10° NE daylight
02 Mar - 14:22:21 10° SW 14:28:07 62° NW 14:33:38 10° NNE daylight
02 Mar - 16:06:57 10° WNW 16:11:06 20° NNW 16:15:07 10° NNE daylight
02 Mar - 17:53:00 10° NNW 17:55:10 12° N 17:57:17 10° NNE daylight
02 Mar - 19:35:49 10° NNW 19:39:19 18° NNE 19:42:39 10° ENE visible
02 Mar - 21:17:23 10° NNW 21:22:27 54° NE 21:27:03 10° SE visible
02 Mar - 22:59:56 10° NW 23:04:00 26° WSW 23:07:47 10° SSW visible
